When you browse on this site, cookies collect data to enhance your experience and personalize the content and advertising you see.
Visit our Privacy Policy to learn more. By continuing to use the site, you agree to this use of cookies and data.
  • In Hungary
  • List of Countries
  • For 7 days
  • Water Temperature
  • Satellite Maps
  • Weather Map
  • News
  • Weather Widgets
  • user-avatar
    Login

    Hourly Weather Kaszow

    Today, 25 May, Saturday

    Time Temperature Precipitation Wind Pressure Humidity
    00:00 +11°C° 0 mm 1 mps 738 mmHg 91%
    01:00 +11°C° 0 mm 1 mps 738 mmHg 91%
    02:00 +11°C° 0 mm 1 mps 738 mmHg 91%
    03:00 +11°C° 0 mm 1 mps 738 mmHg 91%
    04:00 +9°C° 0 mm 2 mps 738 mmHg 91%
    05:00 +12°C° 0 mm 2 mps 738 mmHg 86%
    06:00 +14°C° 0 mm 2 mps 738 mmHg 80%
    07:00 +15°C° 0 mm 2 mps 738 mmHg 75%
    08:00 +17°C° 0 mm 2 mps 738 mmHg 68%
    09:00 +19°C° 0 mm 2 mps 738 mmHg 61%
    10:00 +20°C° 0 mm 3 mps 739 mmHg 53%
    11:00 +21°C° 0 mm 3 mps 739 mmHg 52%
    12:00 +21°C° 0 mm 2 mps 738 mmHg 51%
    13:00 +23°C° 0 mm 2 mps 738 mmHg 50%
    14:00 +22°C° 0 mm 3 mps 738 mmHg 53%
    15:00 +22°C° 0 mm 3 mps 738 mmHg 55%
    16:00 +22°C° 0 mm 3 mps 738 mmHg 58%
    17:00 +20°C° 0.1 mm 2 mps 738 mmHg 64%
    18:00 +19°C° 0.1 mm 2 mps 738 mmHg 70%
    19:00 +18°C° 0.1 mm 1 mps 738 mmHg 76%
    20:00 +16°C° 0 mm 1 mps 738 mmHg 79%
    21:00 +15°C° 0 mm 1 mps 739 mmHg 82%
    22:00 +14°C° 0 mm 1 mps 739 mmHg 85%
    23:00 +14°C° 0 mm 1 mps 739 mmHg 87%

    Tomorrow, 26 May, Sunday

    Time Temperature Precipitation Wind Pressure Humidity
    00:00 +13°C° 0 mm 1 mps 739 mmHg 88%
    01:00 +13°C° 0 mm 1 mps 739 mmHg 89%
    02:00 +13°C° 0 mm 1 mps 739 mmHg 90%
    03:00 +12°C° 0 mm 1 mps 739 mmHg 90%
    04:00 +12°C° 0 mm 1 mps 739 mmHg 90%
    05:00 +14°C° 0 mm 1 mps 739 mmHg 86%
    06:00 +16°C° 0 mm 1 mps 739 mmHg 82%
    07:00 +17°C° 0 mm 2 mps 740 mmHg 78%
    08:00 +18°C° 0.1 mm 2 mps 739 mmHg 74%
    09:00 +20°C° 0.1 mm 2 mps 739 mmHg 71%
    10:00 +21°C° 0.1 mm 3 mps 739 mmHg 67%
    11:00 +22°C° 0.2 mm 3 mps 739 mmHg 65%
    12:00 +22°C° 0.2 mm 3 mps 739 mmHg 62%
    13:00 +24°C° 0.2 mm 3 mps 739 mmHg 60%
    14:00 +24°C° 0.5 mm 3 mps 739 mmHg 63%
    15:00 +22°C° 0.5 mm 3 mps 738 mmHg 66%
    16:00 +22°C° 0.5 mm 3 mps 738 mmHg 70%
    17:00 +21°C° 0.5 mm 3 mps 738 mmHg 75%
    18:00 +20°C° 0.5 mm 2 mps 738 mmHg 79%
    19:00 +18°C° 0.5 mm 2 mps 738 mmHg 84%
    20:00 +17°C° 0 mm 2 mps 739 mmHg 86%
    21:00 +16°C° 0 mm 2 mps 739 mmHg 89%
    22:00 +15°C° 0 mm 2 mps 739 mmHg 91%
    23:00 +15°C° 0 mm 2 mps 739 mmHg 91%

    Day after tomorrow, 27 May, Monday

    Time Temperature Precipitation Wind Pressure Humidity
    00:00 +15°C° 0 mm 2 mps 739 mmHg 92%
    01:00 +14°C° 0 mm 2 mps 739 mmHg 92%
    02:00 +14°C° 0 mm 2 mps 739 mmHg 92%
    03:00 +14°C° 0 mm 2 mps 738 mmHg 92%
    04:00 +14°C° 0 mm 1 mps 738 mmHg 91%
    05:00 +15°C° 0 mm 2 mps 738 mmHg 87%
    06:00 +17°C° 0 mm 2 mps 739 mmHg 83%
    07:00 +19°C° 0 mm 2 mps 739 mmHg 79%
    08:00 +21°C° 0.2 mm 2 mps 738 mmHg 74%
    09:00 +22°C° 0.2 mm 3 mps 738 mmHg 68%
    10:00 +25°C° 0.2 mm 3 mps 738 mmHg 63%
    11:00 +25°C° 0.9 mm 3 mps 738 mmHg 65%
    12:00 +25°C° 0.9 mm 4 mps 738 mmHg 66%
    13:00 +25°C° 0.9 mm 4 mps 738 mmHg 67%
    14:00 +23°C° 0.2 mm 4 mps 738 mmHg 69%
    15:00 +24°C° 0.2 mm 3 mps 737 mmHg 71%
    16:00 +22°C° 0.2 mm 3 mps 737 mmHg 72%
    17:00 +21°C° 0.1 mm 2 mps 737 mmHg 76%
    18:00 +20°C° 0.1 mm 2 mps 737 mmHg 80%
    19:00 +18°C° 0.1 mm 2 mps 737 mmHg 83%
    20:00 +19°C° 0 mm 1 mps 737 mmHg 84%
    21:00 +19°C° 0 mm 1 mps 737 mmHg 86%
    22:00 +19°C° 0 mm 1 mps 737 mmHg 87%
    23:00 +18°C° 0 mm 1 mps 736 mmHg 88%

    28 May, Tuesday

    Time Temperature Precipitation Wind Pressure Humidity
    00:00 +18°C° 0 mm 1 mps 736 mmHg 89%
    01:00 +18°C° 0 mm 1 mps 736 mmHg 90%
    02:00 +18°C° 1.4 mm 1 mps 735 mmHg 92%
    03:00 +18°C° 1.4 mm 1 mps 735 mmHg 93%
    04:00 +18°C° 1.4 mm 1 mps 735 mmHg 95%
    05:00 +19°C° 0.2 mm 1 mps 735 mmHg 91%
    06:00 +20°C° 0.2 mm 1 mps 735 mmHg 88%
    07:00 +21°C° 0.2 mm 1 mps 734 mmHg 84%
    08:00 +23°C° 0 mm 2 mps 734 mmHg 74%
    09:00 +25°C° 0 mm 2 mps 734 mmHg 64%
    10:00 +26°C° 0 mm 3 mps 734 mmHg 54%
    11:00 +27°C° 0 mm 2 mps 733 mmHg 52%
    12:00 +27°C° 0 mm 2 mps 733 mmHg 50%
    13:00 +28°C° 0 mm 2 mps 733 mmHg 49%
    14:00 +27°C° 0.7 mm 2 mps 732 mmHg 56%
    15:00 +26°C° 0.7 mm 1 mps 732 mmHg 63%
    16:00 +25°C° 0.7 mm 1 mps 732 mmHg 70%
    17:00 +23°C° 0 mm 1 mps 731 mmHg 74%
    18:00 +21°C° 0 mm 2 mps 731 mmHg 78%
    19:00 +20°C° 0 mm 2 mps 731 mmHg 83%
    20:00 +20°C° 0.2 mm 2 mps 731 mmHg 84%
    21:00 +19°C° 0.2 mm 2 mps 731 mmHg 85%
    22:00 +18°C° 0.2 mm 2 mps 731 mmHg 87%
    23:00 +18°C° 0.3 mm 2 mps 731 mmHg 87%

    29 May, Wednesday

    Time Temperature Precipitation Wind Pressure Humidity
    00:00 +17°C° 0.3 mm 2 mps 731 mmHg 87%
    01:00 +16°C° 0.3 mm 2 mps 731 mmHg 87%
    02:00 +16°C° 0 mm 2 mps 731 mmHg 88%
    03:00 +16°C° 0 mm 2 mps 731 mmHg 89%
    04:00 +15°C° 0 mm 1 mps 731 mmHg 89%
    05:00 +16°C° 0 mm 2 mps 731 mmHg 89%
    06:00 +17°C° 0 mm 2 mps 732 mmHg 88%
    07:00 +17°C° 0 mm 3 mps 732 mmHg 87%
    08:00 +17°C° 0.2 mm 3 mps 733 mmHg 87%
    09:00 +17°C° 0.2 mm 4 mps 734 mmHg 87%
    10:00 +17°C° 0.2 mm 4 mps 734 mmHg 86%
    11:00 +16°C° 0 mm 5 mps 735 mmHg 86%
    12:00 +15°C° 0 mm 5 mps 735 mmHg 86%
    13:00 +14°C° 0 mm 5 mps 736 mmHg 85%
    14:00 +14°C° 0.1 mm 5 mps 736 mmHg 85%
    15:00 +14°C° 0.1 mm 4 mps 737 mmHg 85%
    16:00 +13°C° 0.1 mm 4 mps 737 mmHg 86%
    17:00 +13°C° 0.1 mm 3 mps 738 mmHg 86%
    18:00 +12°C° 0.1 mm 3 mps 739 mmHg 86%
    19:00 +13°C° 0.1 mm 2 mps 739 mmHg 86%
    20:00 +13°C° 0 mm 2 mps 740 mmHg 86%
    21:00 +12°C° 0 mm 2 mps 741 mmHg 87%
    22:00 +10°C° 0 mm 2 mps 741 mmHg 87%
    23:00 +11°C° 0.1 mm 1 mps 742 mmHg 88%

    30 May, Thursday

    Time Temperature Precipitation Wind Pressure Humidity
    00:00 +11°C° 0.1 mm 1 mps 742 mmHg 89%
    01:00 +10°C° 0.1 mm 1 mps 742 mmHg 91%
    02:00 +10°C° 0.4 mm 1 mps 743 mmHg 92%
    03:00 +9°C° 0.4 mm 0 mps 743 mmHg 93%
    04:00 +9°C° 0.4 mm 0 mps 744 mmHg 94%
    05:00 +9°C° 1 mm 0 mps 744 mmHg 94%
    06:00 +9°C° 1 mm 0 mps 745 mmHg 94%
    07:00 +10°C° 1 mm 0 mps 746 mmHg 94%
    08:00 +11°C° 0.4 mm 1 mps 746 mmHg 92%
    09:00 +11°C° 0.4 mm 1 mps 746 mmHg 90%
    10:00 +12°C° 0.4 mm 1 mps 746 mmHg 88%
    11:00 +12°C° 0 mm 2 mps 746 mmHg 83%
    12:00 +13°C° 0 mm 2 mps 746 mmHg 79%
    13:00 +14°C° 0 mm 2 mps 746 mmHg 74%
    14:00 +14°C° 0 mm 2 mps 745 mmHg 72%
    15:00 +14°C° 0 mm 2 mps 745 mmHg 70%
    16:00 +14°C° 0 mm 1 mps 745 mmHg 69%
    17:00 +13°C° 0 mm 1 mps 745 mmHg 72%
    18:00 +12°C° 0 mm 1 mps 744 mmHg 75%
    19:00 +12°C° 0 mm 1 mps 744 mmHg 78%
    20:00 +11°C° 0.1 mm 1 mps 744 mmHg 79%
    21:00 +10°C° 0.1 mm 0 mps 744 mmHg 81%
    22:00 +10°C° 0.1 mm 0 mps 744 mmHg 82%
    23:00 +9°C° 0.1 mm 0 mps 744 mmHg 83%
    Show more